"startDT [UTC]","vpos","CH4 [ppm]","stdev(CH4) [ppm]","CO2 [ppm]","stdev(CO2) [ppm]","H2O_reported [%]","stdev(H2O_reported)","CavityPressure [torr]","CavityTemp [C]","OutletValve","CH4_dry [ppm]","CO2_dry [ppm]","DasTemp [C]","EtalonTemp [C]","WarmBoxTemp [C]","MPVPosition","T_ECpre [C]","T_EC1 [C]","T_EC2 [C]","p_inlet [hPa]","p_in [hPa]","p_out [hPa]","T_inlet [C]","RH_inlet [%]","dwpt_inlet [C]","T_vent [C]","RH_vent [%]","dwpt_vent [C]","flow_vent [l min-1]","flow_inlet [l min-1]","dwpt_sample [C]","T_room [C]"
2014-06-17 00:00:00,0.0,1.89024,0.00037,394.571,0.033,1.0668,0.0024,139.999,45.000,32254.32967,1.91076,399.809,41.688,45.061,45.000,0.00,0.12,-272.60,-272.67,-26,591,-13,29.8,19.1,3.7,29.4,20.0,4.1,5.73,2.35,5.9,31.9
2014-06-17 00:01:00,0.0,1.89085,0.00037,394.501,0.065,1.0741,0.0045,139.996,45.000,32252.43295,1.91151,399.779,41.701,45.061,45.000,0.00,0.12,-272.61,-272.68,-26,590,-13,29.8,19.3,3.9,29.4,20.1,4.2,5.73,2.25,5.9,32.0
2014-06-17 00:02:00,0.0,1.89082,0.00047,394.432,0.058,1.0914,0.0035,139.999,45.000,32253.34030,1.91185,399.794,41.719,45.061,45.000,0.00,0.12,-272.61,-272.68,-25,590,-13,29.8,19.6,4.1,29.4,20.4,4.4,5.73,2.05,5.9,32.0
2014-06-17 00:03:00,0.0,1.89040,0.00031,394.535,0.051,1.0971,0.0038,139.999,45.000,32252.42792,1.91155,399.926,41.750,45.061,45.000,0.00,0.12,-272.60,-272.67,-25,591,-13,29.8,19.7,4.2,29.4,20.6,4.5,5.73,2.09,5.9,32.0
2014-06-17 00:04:00,0.0,1.89101,0.00042,394.661,0.037,1.0805,0.0035,139.996,45.000,32251.81774,1.91182,399.974,41.750,45.061,45.000,0.00,0.12,-272.60,-272.68,-26,591,-13,29.8,19.4,3.9,29.4,20.3,4.3,5.73,2.30,5.9,31.9
2014-06-17 00:05:00,0.0,1.89112,0.00049,394.694,0.041,1.0788,0.0049,140.001,45.000,32252.16672,1.91192,399.996,41.751,45.060,45.000,0.00,0.12,-272.61,-272.68,-25,590,-13,29.8,19.4,3.9,29.4,20.3,4.3,5.73,2.33,5.9,31.9
2014-06-17 00:06:00,0.0,1.89145,0.00041,394.865,0.061,1.0634,0.0056,139.998,45.000,32252.52809,1.91192,400.090,41.751,45.060,45.000,0.00,0.12,-272.60,-272.67,-24,591,-13,29.8,19.0,3.7,29.4,19.9,4.1,5.73,2.12,5.9,31.9
2014-06-17 00:07:00,0.0,1.89177,0.00030,394.885,0.033,1.0556,0.0024,139.997,45.000,32251.76841,1.91211,400.072,41.750,45.060,45.000,0.00,0.12,-272.60,-272.67,-25,591,-13,29.8,18.9,3.6,29.4,19.8,3.9,5.73,2.03,5.9,31.9
2014-06-17 00:08:00,0.0,1.89183,0.00039,394.840,0.042,1.0600,0.0027,140.000,45.000,32250.29648,1.91222,400.048,41.749,45.060,45.000,0.00,0.12,-272.61,-272.67,-26,590,-13,29.8,19.0,3.6,29.4,19.9,4.0,5.73,2.22,5.9,31.9
2014-06-17 00:09:00,0.0,1.89220,0.00042,394.935,0.032,1.0545,0.0025,139.999,45.000,32249.77220,1.91252,400.117,41.749,45.060,45.000,0.00,0.12,-272.60,-272.67,-25,590,-13,29.8,18.9,3.6,29.4,19.8,3.9,5.73,2.36,5.9,31.9
2014-06-17 00:10:00,0.0,1.89218,0.00031,394.851,0.042,1.0632,0.0068,139.999,45.000,32248.05446,1.91268,400.076,41.750,45.060,45.000,0.00,0.12,-272.60,-272.67,-25,591,-13,29.7,19.1,3.7,29.4,19.9,4.0,5.73,2.21,5.9,31.9
2014-06-17 00:11:00,0.0,1.89267,0.00044,394.882,0.049,1.0673,0.0039,140.003,45.000,32248.24953,1.91321,400.129,41.750,45.060,45.000,0.00,0.12,-272.60,-272.68,-26,591,-13,29.8,19.2,3.8,29.4,20.0,4.1,5.73,2.02,5.9,31.8
2014-06-17 00:12:00,0.0,1.89319,0.00031,394.918,0.050,1.0644,0.0045,139.995,45.000,32245.34136,1.91370,400.148,41.730,45.060,45.000,0.00,0.12,-272.60,-272.68,-25,590,-13,29.7,19.1,3.7,29.4,19.9,4.1,5.73,2.14,5.9,31.8
2014-06-17 00:13:00,0.0,1.89333,0.00026,395.015,0.044,1.0557,0.0053,139.997,44.999,32244.37465,1.91368,400.205,41.690,45.060,45.000,0.00,0.12,-272.60,-272.67,-25,591,-13,29.7,18.9,3.6,29.4,19.8,3.9,5.73,2.36,5.9,31.9
2014-06-17 00:14:00,0.0,1.89359,0.00041,395.029,0.062,1.0545,0.0054,140.000,45.000,32242.77483,1.91390,400.212,41.687,45.060,45.000,0.00,0.12,-272.60,-272.68,-26,591,-13,29.7,18.9,3.6,29.4,19.8,3.9,5.73,2.26,5.8,32.0
2014-06-17 00:15:00,0.0,1.89383,0.00041,395.098,0.027,1.0444,0.0027,140.000,45.000,32241.91366,1.91396,400.231,41.682,45.060,45.000,0.00,0.12,-272.60,-272.68,-26,590,-13,29.7,18.7,3.4,29.4,19.6,3.8,5.73,2.04,5.9,31.9
2014-06-17 00:16:00,0.0,1.89416,0.00047,395.124,0.040,1.0407,0.0033,139.999,45.000,32241.86536,1.91425,400.237,41.687,45.061,45.000,0.00,0.12,-272.60,-272.68,-24,590,-13,29.7,18.7,3.4,29.4,19.5,3.7,5.73,2.10,5.8,32.0
2014-06-17 00:17:00,0.0,1.89412,0.00036,394.999,0.042,1.0572,0.0065,139.998,45.000,32242.34351,1.91445,400.195,41.647,45.061,45.000,0.00,0.12,-272.61,-272.68,-25,591,-13,29.7,19.0,3.6,29.4,19.8,3.9,5.73,2.34,5.8,32.0
2014-06-17 00:18:00,0.0,1.89428,0.00038,395.027,0.036,1.0569,0.0020,139.998,45.000,32240.77561,1.91469,400.223,41.633,45.061,45.000,0.00,0.12,-272.61,-272.67,-26,590,-13,29.7,19.0,3.6,29.4,19.9,4.0,5.73,2.31,5.8,32.0
2014-06-17 00:19:00,0.0,1.89416,0.00057,394.915,0.054,1.0661,0.0055,139.997,45.000,32239.41392,1.91471,400.157,41.629,45.061,45.000,0.00,0.12,-272.61,-272.67,-25,590,-13,29.7,19.2,3.7,29.4,20.0,4.1,5.73,2.06,5.8,32.0
2014-06-17 00:20:00,0.0,1.89456,0.00041,394.873,0.054,1.0740,0.0039,139.999,45.000,32240.52705,1.91528,400.151,41.629,45.061,45.000,0.00,0.12,-272.60,-272.67,-25,591,-13,29.7,19.3,3.8,29.4,20.2,4.2,5.73,2.07,5.8,31.9
2014-06-17 00:21:00,0.0,1.89457,0.00038,394.929,0.049,1.0710,0.0063,140.002,45.000,32242.69907,1.91522,400.196,41.624,45.061,45.000,0.00,0.12,-272.61,-272.68,-26,591,-13,29.7,19.3,3.8,29.4,20.1,4.1,5.73,2.31,5.8,31.9
2014-06-17 00:22:00,0.0,1.89437,0.00084,394.916,0.069,1.0738,0.0041,139.999,45.000,32242.70107,1.91515,400.195,41.626,45.061,45.000,0.00,0.12,-272.61,-272.68,-25,590,-13,29.7,19.4,3.8,29.4,20.2,4.2,5.73,2.33,5.8,31.9
2014-06-17 00:23:00,0.0,1.89427,0.00052,394.970,0.061,1.0603,0.0075,139.999,45.000,32241.10392,1.91471,400.182,41.625,45.060,45.000,0.00,0.12,-272.60,-272.67,-24,591,-13,29.7,19.1,3.7,29.4,19.9,4.0,5.73,2.09,5.8,31.9
2014-06-17 00:24:00,0.0,1.89419,0.00037,395.043,0.039,1.0602,0.0085,140.002,45.000,32240.90384,1.91461,400.256,41.615,45.060,45.000,0.00,0.12,-272.60,-272.67,-26,591,-13,29.7,19.1,3.6,29.4,20.0,4.0,5.73,2.04,5.7,32.1
2014-06-17 00:25:00,0.0,1.89443,0.00042,394.954,0.056,1.0644,0.0056,140.000,45.000,32240.56520,1.91497,400.186,41.594,45.060,45.000,0.00,0.11,-272.61,-272.68,-26,590,-13,29.7,19.2,3.7,29.4,20.0,4.0,5.73,2.27,5.7,32.0
2014-06-17 00:26:00,0.0,1.89435,0.00032,395.003,0.053,1.0600,0.0023,140.001,45.000,32241.14853,1.91481,400.214,41.566,45.060,45.000,0.00,0.12,-272.60,-272.67,-24,590,-13,29.7,19.1,3.7,29.4,20.0,4.0,5.73,2.36,5.7,32.0
2014-06-17 00:27:00,0.0,1.89467,0.00037,395.049,0.058,1.0565,0.0032,139.998,45.000,32240.24114,1.91505,400.245,41.566,45.061,45.000,0.00,0.12,-272.61,-272.67,-25,591,-13,29.7,19.0,3.6,29.3,19.9,3.9,5.73,2.13,5.7,32.0
2014-06-17 00:28:00,0.0,1.89473,0.00057,394.889,0.070,1.0667,0.0058,139.999,45.000,32241.23171,1.91531,400.130,41.567,45.061,45.000,0.00,0.12,-272.60,-272.68,-26,590,-13,29.7,19.3,3.8,29.3,20.1,4.1,5.73,2.02,5.7,31.9
2014-06-17 00:29:00,0.0,1.89502,0.00035,394.795,0.064,1.0788,0.0035,140.001,45.000,32241.56574,1.91584,400.101,41.564,45.061,45.000,0.00,0.12,-272.61,-272.68,-25,590,-13,29.7,19.5,3.9,29.3,20.3,4.2,5.73,2.25,5.7,31.9
2014-06-17 00:30:00,0.0,1.89573,0.00079,394.843,0.066,1.0822,0.0057,139.999,45.000,32239.98886,1.91657,400.161,41.563,45.061,45.000,0.00,0.12,-272.61,-272.67,-25,591,-13,29.7,19.6,4.0,29.3,20.4,4.3,5.73,2.37,5.7,31.9
2014-06-17 00:31:00,0.0,1.89706,0.00030,394.955,0.064,1.0750,0.0037,140.001,45.000,32239.48962,1.91783,400.240,41.564,45.060,45.000,0.00,0.12,-272.61,-272.68,-26,591,-12,29.7,19.4,3.9,29.3,20.3,4.2,5.73,2.15,5.7,32.0
2014-06-17 00:32:00,0.0,1.89764,0.00037,395.108,0.053,1.0637,0.0052,140.000,45.000,32237.00598,1.91817,400.342,41.560,45.060,45.000,0.00,0.12,-272.60,-272.68,-25,590,-13,29.6,19.2,3.7,29.3,20.1,4.1,5.73,2.02,5.7,32.1
2014-06-17 00:33:00,0.0,1.89797,0.00026,395.144,0.068,1.0597,0.0073,140.002,45.000,32236.73831,1.91846,400.355,41.557,45.060,45.000,0.00,0.12,-272.60,-272.67,-25,591,-13,29.6,19.1,3.7,29.3,20.0,4.0,5.73,2.23,5.7,32.0
2014-06-17 00:34:00,0.0,1.89826,0.00041,395.186,0.063,1.0544,0.0032,140.001,45.000,32239.43317,1.91863,400.370,41.544,45.060,45.000,0.00,0.12,-272.61,-272.67,-26,591,-13,29.6,19.1,3.6,29.3,19.9,3.9,5.73,2.38,5.6,32.0
2014-06-17 00:35:00,0.0,1.89805,0.00040,395.158,0.056,1.0661,0.0029,140.000,45.000,32239.68037,1.91864,400.401,41.534,45.060,45.000,0.00,0.12,-272.61,-272.68,-26,590,-13,29.6,19.3,3.8,29.3,20.1,4.1,5.73,2.16,5.6,32.1
2014-06-17 00:36:00,0.0,1.89845,0.00028,395.239,0.040,1.0626,0.0054,139.998,45.000,32237.76599,1.91900,400.467,41.537,45.061,45.000,0.00,0.12,-272.60,-272.67,-24,590,-12,29.6,19.2,3.7,29.3,20.1,4.0,5.73,2.01,5.6,32.0
2014-06-17 00:37:00,0.0,1.89824,0.00037,395.248,0.030,1.0578,0.0027,140.000,45.000,32238.54383,1.91868,400.450,41.550,45.060,45.000,0.00,0.12,-272.60,-272.68,-26,591,-12,29.6,19.1,3.6,29.3,20.0,4.0,5.73,2.23,5.6,32.0
2014-06-17 00:38:00,0.0,1.89821,0.00035,395.255,0.043,1.0634,0.0043,139.999,45.000,32239.43350,1.91876,400.486,41.544,45.060,45.000,0.00,0.12,-272.61,-272.67,-26,590,-12,29.6,19.3,3.7,29.3,20.1,4.0,5.73,2.38,5.6,32.0
2014-06-17 00:39:00,0.0,1.89815,0.00026,395.314,0.054,1.0630,0.0029,140.000,45.000,32240.97459,1.91869,400.543,41.505,45.060,45.000,0.00,0.12,-272.61,-272.68,-24,590,-12,29.6,19.3,3.7,29.3,20.1,4.0,5.73,2.15,5.6,31.8
2014-06-17 00:40:00,0.0,1.89862,0.00044,395.460,0.045,1.0557,0.0027,140.002,45.000,32240.66973,1.91902,400.655,41.500,45.060,45.000,0.00,0.12,-272.60,-272.68,-25,591,-12,29.6,19.1,3.6,29.3,19.9,3.9,5.73,2.01,5.6,31.8
2014-06-17 00:41:00,0.0,1.89917,0.00042,395.523,0.039,1.0568,0.0037,139.999,45.000,32238.89292,1.91959,400.722,41.499,45.061,45.000,0.00,0.12,-272.60,-272.68,-26,590,-12,29.6,19.1,3.6,29.3,19.9,3.9,5.73,2.24,5.6,31.8
2014-06-17 00:42:00,0.0,1.89932,0.00049,395.602,0.074,1.0534,0.0057,140.000,45.000,32239.58657,1.91967,400.786,41.493,45.061,45.000,0.00,0.12,-272.61,-272.68,-25,590,-12,29.6,19.1,3.6,29.3,19.9,3.9,5.73,2.37,5.6,31.8
2014-06-17 00:43:00,0.0,1.89964,0.00041,395.691,0.035,1.0457,0.0020,139.997,45.000,32237.71609,1.91985,400.838,41.494,45.061,45.000,0.00,0.12,-272.61,-272.67,-25,591,-12,29.6,18.9,3.5,29.2,19.8,3.8,5.73,2.14,5.6,31.8
2014-06-17 00:44:00,0.0,1.89994,0.00039,395.704,0.033,1.0449,0.0032,140.001,45.000,32238.76640,1.92015,400.846,41.475,45.061,45.000,0.00,0.12,-272.60,-272.67,-26,590,-12,29.6,18.9,3.5,29.2,19.7,3.8,5.73,2.02,5.6,31.8
2014-06-17 00:45:00,0.0,1.89948,0.00037,395.696,0.029,1.0478,0.0037,140.000,45.000,32239.73280,1.91974,400.853,41.468,45.061,45.000,0.00,0.12,-272.61,-272.68,-25,590,-12,29.6,19.0,3.5,29.3,19.8,3.9,5.73,2.26,5.6,31.7
2014-06-17 00:46:00,0.0,1.89902,0.00059,395.638,0.053,1.0522,0.0035,139.999,45.000,32238.54362,1.91941,400.820,41.461,45.061,45.000,0.00,0.12,-272.61,-272.68,-24,591,-12,29.6,19.1,3.6,29.2,19.9,3.9,5.73,2.37,5.6,31.7
2014-06-17 00:47:00,0.0,1.89841,0.00047,395.552,0.047,1.0531,0.0025,140.000,45.000,32238.24688,1.91872,400.734,41.453,45.061,45.000,0.00,0.12,-272.61,-272.67,-26,590,-12,29.5,19.1,3.6,29.2,19.9,3.9,5.73,2.12,5.5,31.9
2014-06-17 00:48:00,0.0,1.89906,0.00035,395.618,0.045,1.0488,0.0021,140.000,45.000,32238.81559,1.91933,400.781,41.451,45.061,45.000,0.00,0.12,-272.61,-272.68,-25,590,-12,29.6,19.0,3.5,29.2,19.9,3.9,5.73,2.03,5.6,32.0
2014-06-17 00:49:00,0.0,1.89887,0.00028,395.624,0.041,1.0480,0.0035,140.000,45.000,32237.98083,1.91915,400.782,41.447,45.061,45.000,0.00,0.12,-272.61,-272.68,-24,590,-12,29.6,19.0,3.5,29.2,19.8,3.8,5.73,2.28,5.5,31.9
2014-06-17 00:50:00,0.0,1.89892,0.00049,395.636,0.030,1.0368,0.0032,140.000,45.000,32237.60951,1.91895,400.737,41.439,45.061,45.000,0.00,0.12,-272.60,-272.67,-26,591,-12,29.6,18.8,3.3,29.2,19.6,3.7,5.73,2.36,5.5,31.8
2014-06-17 00:51:00,0.0,1.89926,0.00035,395.708,0.041,1.0345,0.0020,140.000,45.000,32236.97498,1.91926,400.797,41.439,45.061,45.000,0.00,0.12,-272.61,-272.67,-25,590,-12,29.6,18.8,3.3,29.2,19.6,3.7,5.73,2.10,5.5,31.8
2014-06-17 00:52:00,0.0,1.89898,0.00038,395.681,0.039,1.0425,0.0022,139.999,45.000,32236.92879,1.91913,400.810,41.435,45.061,45.000,0.00,0.12,-272.61,-272.68,-24,590,-12,29.6,18.9,3.4,29.2,19.7,3.7,5.73,2.03,5.5,31.8
2014-06-17 00:53:00,0.0,1.89893,0.00020,395.652,0.040,1.0473,0.0036,140.002,45.000,32235.77636,1.91917,400.808,41.423,45.061,45.000,0.00,0.12,-272.60,-272.67,-26,591,-12,29.5,19.0,3.5,29.2,19.8,3.8,5.73,2.31,5.5,31.8
2014-06-17 00:54:00,0.0,1.89916,0.00045,395.669,0.031,1.0407,0.0019,139.999,45.000,32233.73130,1.91926,400.791,41.408,45.061,45.000,0.00,0.12,-272.61,-272.67,-26,590,-12,29.6,18.9,3.4,29.2,19.7,3.7,5.73,2.35,5.5,31.6
2014-06-17 00:55:00,0.0,1.89974,0.00044,395.708,0.022,1.0398,0.0029,140.000,45.000,32234.02596,1.91988,400.825,41.380,45.061,45.000,0.00,0.12,-272.61,-272.68,-24,590,-12,29.5,18.9,3.4,29.2,19.7,3.7,5.73,2.07,5.5,31.7
2014-06-17 00:56:00,0.0,1.89961,0.00041,395.786,0.069,1.0397,0.0029,140.000,45.000,32233.66592,1.91968,400.902,41.383,45.061,45.000,0.00,0.12,-272.60,-272.68,-25,591,-12,29.6,18.9,3.4,29.2,19.7,3.7,5.73,2.06,5.5,31.6
2014-06-17 00:57:00,0.0,1.89935,0.00052,395.762,0.044,1.0467,0.0023,140.000,45.000,32232.46989,1.91959,400.914,41.381,45.061,45.000,0.00,0.12,-272.61,-272.68,-26,590,-12,29.5,19.0,3.5,29.2,19.8,3.8,5.73,2.34,5.5,31.8
2014-06-17 00:58:00,0.0,1.89906,0.00041,395.709,0.080,1.0512,0.0026,139.999,45.000,32234.15216,1.91937,400.886,41.377,45.061,45.000,0.00,0.12,-272.61,-272.68,-24,590,-12,29.5,19.1,3.5,29.2,19.9,3.9,5.73,2.32,5.5,31.7
2014-06-17 00:59:00,0.0,1.89937,0.00039,395.725,0.063,1.0425,0.0019,139.999,45.000,32234.13238,1.91953,400.857,41.379,45.061,45.000,0.00,0.12,-272.60,-272.68,-25,591,-12,29.5,19.0,3.4,29.2,19.8,3.8,5.73,2.04,5.5,31.8
2014-06-17 01:00:00,0.0,1.89961,0.00029,395.732,0.034,1.0434,0.0023,139.999,45.000,32234.22403,1.91978,400.867,41.379,45.061,45.000,0.00,0.12,-272.60,-272.68,-26,590,-12,29.5,19.0,3.4,29.2,19.8,3.8,5.73,2.10,5.5,31.7
2014-06-17 01:01:00,0.0,1.89973,0.00033,395.734,0.036,1.0429,0.0030,140.001,45.000,32234.63015,1.91986,400.868,41.376,45.061,45.000,0.00,0.12,-272.61,-272.68,-25,590,-12,29.5,19.0,3.4,29.2,19.8,3.8,5.73,2.37,5.5,31.7
2014-06-17 01:02:00,0.0,1.89982,0.00053,395.727,0.031,1.0423,0.0016,140.001,45.000,32236.06384,1.91997,400.857,41.374,45.061,45.000,0.00,0.12,-272.61,-272.67,-25,591,-12,29.5,19.0,3.4,29.2,19.8,3.8,5.73,2.28,5.5,31.6
2014-06-17 01:03:00,0.0,1.89980,0.00035,395.798,0.046,1.0423,0.0017,140.000,45.000,32235.14381,1.91996,400.927,41.362,45.061,45.000,0.00,0.12,-272.60,-272.67,-26,590,-12,29.5,19.0,3.4,29.2,19.8,3.8,5.73,2.02,5.5,31.8
2014-06-17 01:04:00,0.0,1.89967,0.00039,395.860,0.043,1.0463,0.0023,139.998,45.000,32233.86110,1.91992,401.011,41.319,45.061,45.000,0.00,0.12,-272.61,-272.68,-25,589,-12,29.5,19.0,3.5,29.2,19.9,3.8,5.73,2.14,5.4,31.8
2014-06-17 01:05:00,0.0,1.89929,0.00049,395.876,0.063,1.0536,0.0031,140.000,45.000,32235.33119,1.91966,401.066,41.314,45.061,45.000,0.00,0.11,-272.61,-272.68,-25,591,-12,29.5,19.2,3.6,29.2,20.0,3.9,5.73,2.39,5.4,31.9
2014-06-17 01:06:00,0.0,1.89948,0.00035,395.822,0.048,1.0503,0.0035,139.999,45.000,32233.58772,1.91979,400.993,41.315,45.061,45.000,0.00,0.12,-272.61,-272.67,-26,590,-12,29.5,19.1,3.5,29.2,20.0,3.9,5.73,2.22,5.4,31.7
2014-06-17 01:07:00,0.0,1.89917,0.00033,395.814,0.065,1.0489,0.0026,139.997,45.000,32232.04432,1.91948,400.980,41.314,45.061,45.000,0.00,0.12,-272.60,-272.67,-25,589,-12,29.5,19.1,3.5,29.2,19.9,3.8,5.73,2.00,5.4,31.7
2014-06-17 01:08:00,0.0,1.89913,0.00034,395.814,0.032,1.0460,0.0020,140.000,45.000,32232.86798,1.91933,400.964,41.320,45.061,45.000,0.00,0.12,-272.61,-272.68,-24,590,-12,29.5,19.1,3.5,29.2,19.9,3.8,5.73,2.20,5.4,31.7
2014-06-17 01:09:00,0.0,1.89882,0.00039,395.753,0.052,1.0472,0.0025,140.000,45.000,32233.15586,1.91906,400.911,41.329,45.061,45.000,0.00,0.11,-272.61,-272.68,-26,590,-12,29.5,19.1,3.5,29.2,19.9,3.8,5.73,2.41,5.4,31.9
2014-06-17 01:10:00,0.0,1.89905,0.00025,395.754,0.028,1.0443,0.0014,139.998,45.000,32231.04348,1.91924,400.893,41.328,45.061,45.000,0.00,0.12,-272.60,-272.67,-25,589,-12,29.5,19.0,3.4,29.2,19.9,3.8,5.73,2.15,5.4,31.8
2014-06-17 01:11:00,0.0,1.89907,0.00042,395.762,0.053,1.0467,0.0029,139.997,45.000,32232.43492,1.91931,400.916,41.334,45.061,45.000,0.00,0.12,-272.60,-272.67,-24,590,-12,29.5,19.1,3.5,29.2,19.9,3.8,5.73,2.01,5.4,31.7
2014-06-17 01:12:00,0.0,1.89890,0.00037,395.650,0.074,1.0558,0.0038,139.999,45.000,32232.28076,1.91931,400.848,41.333,45.060,45.000,0.00,0.12,-272.61,-272.68,-26,590,-12,29.5,19.3,3.6,29.2,20.1,4.0,5.73,2.28,5.4,31.7
2014-06-17 01:13:00,0.0,1.89843,0.00058,395.547,0.044,1.0654,0.0023,139.999,45.000,32232.39257,1.91905,400.794,41.367,45.060,45.000,0.00,0.12,-272.61,-272.68,-25,589,-12,29.5,19.5,3.8,29.2,20.3,4.1,5.73,2.37,5.4,31.5
2014-06-17 01:14:00,0.0,1.89759,0.00036,395.576,0.034,1.0614,0.0040,139.996,45.000,32233.18479,1.91811,400.800,41.366,45.060,45.000,0.00,0.12,-272.60,-272.67,-24,590,-12,29.5,19.4,3.7,29.1,20.3,4.1,5.73,2.09,5.4,31.7
2014-06-17 01:15:00,0.0,1.89717,0.00025,395.610,0.033,1.0515,0.0037,139.999,45.000,32233.85810,1.91748,400.789,41.360,45.060,45.000,0.00,0.12,-272.61,-272.68,-26,590,-12,29.5,19.2,3.6,29.2,20.1,3.9,5.73,2.04,5.4,31.8
2014-06-17 01:16:00,0.0,1.89717,0.00052,395.396,0.131,1.0599,0.0074,139.999,45.000,32233.77580,1.91761,400.611,41.356,45.060,45.000,0.00,0.11,-272.61,-272.68,-25,589,-12,29.4,19.4,3.7,29.1,20.2,4.0,5.73,2.34,5.4,31.9
2014-06-17 01:17:00,0.0,1.89662,0.00057,395.368,0.110,1.0752,0.0104,139.999,45.000,32232.61111,1.91743,400.660,41.366,45.060,45.000,0.00,0.12,-272.60,-272.67,-24,590,-12,29.4,19.7,3.9,29.1,20.5,4.2,5.73,2.32,5.4,32.0
2014-06-17 01:18:00,0.0,1.89644,0.00027,395.602,0.061,1.0470,0.0082,140.002,45.000,32233.25435,1.91667,400.754,41.367,45.060,45.000,0.00,0.12,-272.60,-272.68,-26,590,-12,29.4,19.1,3.5,29.1,20.0,3.9,5.73,2.03,5.4,31.8
2014-06-17 01:19:00,0.0,1.89680,0.00027,395.586,0.059,1.0401,0.0029,139.999,45.000,32232.34763,1.91686,400.706,41.375,45.060,45.000,0.00,0.12,-272.61,-272.68,-25,589,-12,29.4,19.0,3.4,29.1,19.8,3.7,5.73,2.11,5.3,31.7
2014-06-17 01:20:00,0.0,1.89619,0.00046,395.401,0.086,1.0588,0.0075,139.997,45.000,32233.23275,1.91662,400.612,41.373,45.060,45.000,0.00,0.12,-272.60,-272.68,-24,590,-12,29.4,19.4,3.6,29.1,20.2,3.9,5.73,2.40,5.4,31.8
2014-06-17 01:21:00,0.0,1.89620,0.00037,395.396,0.063,1.0596,0.0027,140.000,45.000,32232.67474,1.91669,400.608,41.365,45.060,45.000,0.00,0.12,-272.60,-272.67,-26,590,-12,29.4,19.4,3.7,29.1,20.3,4.0,5.73,2.22,5.3,31.6
2014-06-17 01:22:00,0.0,1.89652,0.00053,395.491,0.038,1.0540,0.0020,139.999,45.000,32231.21858,1.91686,400.677,41.346,45.060,45.000,0.00,0.12,-272.61,-272.68,-25,589,-12,29.4,19.3,3.6,29.1,20.1,3.9,5.73,1.99,5.3,31.6
2014-06-17 01:23:00,0.0,1.89610,0.00039,395.500,0.039,1.0521,0.0019,140.002,45.000,32233.02258,1.91640,400.678,41.319,45.060,45.000,0.00,0.12,-272.60,-272.68,-24,590,-12,29.4,19.3,3.6,29.1,20.1,3.9,5.73,2.24,5.3,31.6
2014-06-17 01:24:00,0.0,1.89557,0.00041,395.477,0.034,1.0517,0.0039,139.999,45.000,32231.39085,1.91590,400.654,41.314,45.061,45.000,0.00,0.12,-272.61,-272.67,-26,590,-12,29.4,19.3,3.6,29.1,20.1,3.9,5.73,2.39,5.3,31.6
2014-06-17 01:25:00,0.0,1.89568,0.00058,395.347,0.062,1.0637,0.0080,140.000,45.000,32229.09729,1.91619,400.579,41.314,45.061,45.000,0.00,0.12,-272.61,-272.67,-25,589,-12,29.4,19.5,3.7,29.1,20.3,4.1,5.73,2.08,5.3,31.7
2014-06-17 01:26:00,0.0,1.89548,0.00029,395.395,0.036,1.0626,0.0019,140.000,45.000,32229.73934,1.91601,400.625,41.313,45.061,45.000,0.00,0.12,-272.60,-272.68,-24,590,-12,29.4,19.5,3.7,29.1,20.3,4.1,5.73,2.05,5.3,31.6
2014-06-17 01:27:00,0.0,1.89584,0.00043,395.481,0.043,1.0560,0.0038,139.999,45.000,32230.00873,1.91621,400.678,41.313,45.061,45.000,0.00,0.12,-272.61,-272.67,-26,590,-12,29.4,19.3,3.6,29.1,20.2,4.0,5.73,2.37,5.3,31.6
2014-06-17 01:28:00,0.0,1.89587,0.00039,395.580,0.050,1.0476,0.0020,139.997,45.000,32229.79552,1.91607,400.734,41.300,45.061,45.000,0.00,0.12,-272.61,-272.67,-25,589,-12,29.4,19.2,3.5,29.1,20.0,3.8,5.73,2.29,5.3,31.7
2014-06-17 01:29:00,0.0,1.89537,0.00031,395.591,0.037,1.0491,0.0025,139.999,45.000,32228.55218,1.91565,400.753,41.289,45.061,45.000,0.00,0.12,-272.61,-272.68,-24,590,-12,29.4,19.2,3.5,29.1,20.1,3.9,5.73,2.00,5.3,31.8
2014-06-17 01:30:00,0.0,1.89568,0.00036,395.661,0.079,1.0439,0.0030,140.001,45.000,32227.27499,1.91581,400.798,41.261,45.061,45.000,0.00,0.12,-272.60,-272.68,-26,590,-12,29.4,19.1,3.4,29.0,20.0,3.8,5.73,2.19,5.3,31.8
2014-06-17 01:31:00,0.0,1.89539,0.00040,395.741,0.030,1.0285,0.0080,140.001,45.000,32228.20550,1.91525,400.804,41.251,45.061,45.000,0.00,0.11,-272.61,-272.67,-25,589,-12,29.4,18.8,3.2,29.1,19.7,3.6,5.73,2.41,5.3,31.8
2014-06-17 01:32:00,0.0,1.89535,0.00043,395.823,0.051,1.0106,0.0029,140.000,45.000,32229.37498,1.91480,400.792,41.250,45.061,45.000,0.00,0.12,-272.61,-272.68,-24,590,-12,29.4,18.5,2.9,29.0,19.3,3.3,5.73,2.13,5.3,31.8
2014-06-17 01:33:00,0.0,1.89525,0.00040,395.801,0.036,1.0150,0.0025,140.001,45.000,32229.17930,1.91485,400.793,41.250,45.061,45.000,0.00,0.12,-272.60,-272.68,-26,590,-12,29.4,18.6,3.0,29.0,19.4,3.3,5.73,2.02,5.3,31.9
2014-06-17 01:34:00,0.0,1.89482,0.00036,395.819,0.035,1.0070,0.0048,139.999,45.000,32226.02681,1.91422,400.773,41.243,45.061,45.000,0.00,0.12,-272.60,-272.68,-25,589,-12,29.4,18.4,2.9,29.1,19.3,3.3,5.73,2.36,5.3,31.9
2014-06-17 01:35:00,0.0,1.89469,0.00045,395.835,0.040,1.0035,0.0038,139.996,45.000,32223.54180,1.91402,400.767,41.236,45.061,45.000,0.00,0.12,-272.61,-272.68,-24,590,-12,29.4,18.4,2.8,29.0,19.2,3.2,5.73,2.31,5.2,32.0
2014-06-17 01:36:00,0.0,1.89374,0.00046,395.906,0.042,0.9870,0.0098,140.000,45.000,32223.78938,1.91278,400.758,41.221,45.061,45.000,0.00,0.12,-272.60,-272.68,-26,590,-12,29.4,18.0,2.6,29.0,18.9,3.0,5.73,1.99,5.2,31.8
2014-06-17 01:37:00,0.0,1.89311,0.00036,395.980,0.035,0.9671,0.0024,140.002,45.000,32225.39109,1.91171,400.733,41.235,45.061,45.000,0.00,0.12,-272.60,-272.68,-25,589,-12,29.3,17.7,2.3,29.0,18.5,2.6,5.73,2.19,5.2,31.9
2014-06-17 01:38:00,0.0,1.89274,0.00035,396.030,0.073,0.9544,0.0133,139.999,45.000,32221.46702,1.91109,400.717,41.198,45.060,45.000,0.00,0.12,-272.61,-272.68,-25,590,-12,29.3,17.4,2.1,29.0,18.2,2.5,5.73,2.41,5.2,31.6
2014-06-17 01:39:00,0.0,1.89232,0.00040,396.141,0.038,0.9308,0.0053,140.000,45.000,32221.42359,1.91019,400.709,41.188,45.060,45.000,0.00,0.12,-272.61,-272.67,-26,589,-12,29.4,16.9,1.7,29.0,17.7,2.1,5.73,2.11,5.2,31.9
2014-06-17 01:40:00,0.0,1.89231,0.00032,396.190,0.038,0.9294,0.0061,139.998,45.000,32220.93246,1.91014,400.752,41.186,45.061,45.000,0.00,0.12,-272.61,-272.68,-24,589,-12,29.4,16.9,1.7,29.0,17.7,2.0,5.73,2.03,5.2,31.7
2014-06-17 01:41:00,0.0,1.89174,0.00041,396.184,0.060,0.9286,0.0139,139.999,45.000,32220.23460,1.90957,400.744,41.167,45.060,45.000,0.00,0.11,-272.61,-272.67,-25,590,-12,29.3,16.9,1.6,29.0,17.7,2.0,5.73,2.38,5.2,31.7
2014-06-17 01:42:00,0.0,1.89188,0.00040,396.355,0.045,0.8974,0.0059,139.999,45.000,32221.28966,1.90909,400.757,41.128,45.060,45.000,0.00,0.12,-272.61,-272.68,-26,589,-12,29.3,16.3,1.1,29.0,17.1,1.5,5.73,2.27,5.2,31.8
2014-06-17 01:43:00,0.0,1.89186,0.00031,396.285,0.031,0.9142,0.0043,140.000,45.000,32219.15578,1.90936,400.769,41.101,45.060,45.000,0.00,0.12,-272.60,-272.68,-24,589,-12,29.3,16.7,1.4,29.0,17.4,1.8,5.73,1.97,5.1,31.6
2014-06-17 01:44:00,0.0,1.89181,0.00035,396.250,0.043,0.9242,0.0024,139.998,44.999,32217.04731,1.90951,400.788,41.058,45.060,45.000,0.00,0.12,-272.60,-272.68,-25,590,-12,29.3,16.9,1.6,29.0,17.7,2.0,5.73,2.31,5.1,31.5
2014-06-17 01:45:00,0.0,1.89177,0.00033,396.261,0.037,0.9175,0.0040,140.000,44.999,32216.06789,1.90936,400.764,41.011,45.060,45.000,0.00,0.12,-272.61,-272.67,-25,589,-12,29.3,16.8,1.5,28.9,17.5,1.8,5.73,2.36,5.0,31.5
2014-06-17 01:46:00,0.0,1.89191,0.00047,396.309,0.033,0.9059,0.0047,139.998,44.999,32213.45570,1.90928,400.754,40.994,45.060,45.000,0.00,0.12,-272.61,-272.68,-24,590,-12,29.2,16.6,1.3,28.9,17.3,1.6,5.73,1.96,5.0,31.5
2014-06-17 01:47:00,0.0,1.89188,0.00035,396.297,0.033,0.9130,0.0022,139.999,44.999,32210.14132,1.90935,400.777,40.952,45.061,45.000,0.00,0.12,-272.60,-272.68,-26,589,-12,29.2,16.7,1.4,28.9,17.5,1.8,5.73,2.27,5.0,31.5